User: anonymous   Login
Location: Kott?ru
(16.6209°N, 80.6208°E)
Time: 23:41:14
(UTC+00:00)
Language:

Cosmos 1238 Rocket - Orbit

View from above orbital plane
View from above orbital plane
View from above satellite
View from above satellite

Ground track
Ground track

The orbit data is extracted from the following two-line orbital elements,

1 12139U 81003B   20332.65253995  .00002772  00000-0  12757-3 0  9995
2 12139  82.9472 180.7412 0462153  67.2801 297.6558 14.57653293 30222
Epoch (UTC): 27 November 2020 15:39:39
Eccentricity: 0.0462153
inclination: 82.9472°
perigee height: 373 km
apogee height: 1028 km
right ascension of ascending node: 180.7412°
argument of perigee: 67.2801°
revolutions per day: 14.57653293
mean anomaly at epoch: 297.6558°
orbit number at epoch: 3022

The dashed part of the orbit path shows where the satellite is in the earth's shadow,  

DLR